Location: Pcim
(49.7500°N, 19.9670°E)
Time: 14:36:58
(UTC+02:00)

NOAA 18 - Pass Details

Date: 26 April 2024
Orbit: 837 x 859 km, 98.9° (Epoch: 21 May)

Event Time Altitude Azimuth Distance (km) Brightness Sun altitude
Exits shadow 21:34:20 20° 113° (ESE) 1,909 6.5 -14.7°
Maximum altitude 21:37:26 34° 62° (ENE) 1,389 6.2 -15.1°
Drops below altitude 10° 21:42:21 10° 360° (N) 2,502 8.3 -15.6°
Sets 21:44:55 0° 351° (N) 3,439 9.3 -15.9°
